Grinnell Municipal Airfield
Saturday 10:55 PM
Temperature37° (49°/27°)
Dew Point25°
Feels Like33°
Relative Humidity60
%
Visibility10
mi
Pressure1020.7
mb
Wind DirectionNE
40°
Wind Speed6
mph
Precipitation Today0.00"

Last 30 Observations

Time PresWx Temp DP Feels RH% Vsby Pressure Ceiling Direction Speed 1h Precip
10:35 PM 37° 24° 33°59
%
10
mi
1020.7
mb
NE
40°
6
mph
0.00"
10:15 PM 38° 24° 32°58
%
10
mi
1020.7
mb
NNE
30°
7
mph
0.00"
9:55 PM 38° 23° 34°54
%
10
mi
1020.7
mb
NNE
20°
6
mph
0.00"
9:35 PM 38° 24° 33°57
%
10
mi
1020.7
mb
NNE
30°
6
mph
0.00"
9:15 PM 39° 23° 35°52
%
10
mi
1020.7
mb
NNE
20°
6
mph
0.00"
8:55 PM 38° 23° 34°53
%
10
mi
1020.7
mb
NNE
20°
6
mph
0.00"
8:35 PM 40° 23° 36°52
%
10
mi
1020.7
mb
NNE
30°
5
mph
0.00"
8:15 PM 41° 24° 38°49
%
10
mi
1020.7
mb
NNE
20°
5
mph
0.00"
7:55 PM 41° 24° 38°50
%
10
mi
1020.3
mb
NNE
20°
5
mph
0.00"
7:35 PM 44° 24° 41°45
%
10
mi
1020.7
mb
NE
50°
6
mph
0.00"
7:15 PM 47° 22° 44°37
%
10
mi
1020.7
mb
NE
50°
6
mph
0.00"
6:55 PM 48° 22° 44°36
%
10
mi
1020.3
mb
NE
40°
8
mph
0.00"
6:35 PM 48° 22° 45°35
%
10
mi
1020.3
mb
NE
50°
7
mph
0.00"
6:15 PM 49° 22° 45°34
%
10
mi
1020.3
mb
ENE
60°
8
mph
0.00"
5:55 PM 49° 21° 48°34
%
10
mi
1020.3
mb
ENE
60°
3
mph
0.00"
5:35 PM 49° 22° 45°33
%
10
mi
1020.3
mb
NNE
30°
9
mph
0.00"
5:15 PM 49° 21° 45°33
%
10
mi
1020.7
mb
NE
40°
8
mph
0.00"
4:55 PM 49° 24° 45°36
%
10
mi
1020.7
mb
12,000
ft
NE
50°
9
mph
0.00"
4:35 PM 48° 25° 45°40
%
10
mi
1020.7
mb
12,000
ft
NNE
20°
7
mph
0.00"
4:15 PM 48° 26° 45°41
%
10
mi
1021.0
mb
12,000
ft
NE
40°
7
mph
0.00"
3:55 PM 47° 27° 44°45
%
10
mi
1021.3
mb
12,000
ft
NE
50°
7
mph
0.00"
3:35 PM 47° 28° 42°48
%
10
mi
1021.7
mb
12,000
ft
NE
50°
9
mph
0.00"
3:15 PM 46° 29° 41°51
%
10
mi
1022.0
mb
NE
50°
9
mph
0.00"
2:55 PM 45° 31° 39°57
%
10
mi
1022.4
mb
NNE
20°
14
mph
0.00"
2:35 PM 44° 30° 40°57
%
10
mi
1022.7
mb
N
10°
8
mph
0.00"
2:15 PM 43° 31° 38°63
%
10
mi
1023.4
mb
NE
50°
8
mph
0.00"
1:55 PM 41° 31° 35°67
%
10
mi
1023.4
mb
N
360°
11
mph
0.00"
1:35 PM 40° 32° 33°75
%
10
mi
1023.7
mb
N
360°
10
mph
0.00"
1:15 PM 38° 32° 31°80
%
10
mi
1024.1
mb
N
360°
9
mph
0.00"
12:55 PM 36° 32° 28°84
%
10
mi
1024.1
mb
NNW
340°
13
mph
0.00"